Retour au catalogue

THOR ABLESTAR R/B

ActifPO
NORAD 1428·ROCKET BODY·🇺🇸 United States

Lancé Jun 24, 1965 depuis Vandenberg Space Force Base

Loading…

Prochains Passages (prochaines 24 heures)

TLE

FraisSource: Space-Track

Époque: Sep 14, 2026, 20:04 UTC

1 01428U 65048B   26257.83645037  .00000030  00000-0  31474-4 0  9992
2 01428  89.8692 283.8716 0054933 280.1334 253.0642 13.52692256 20745

Suivez THOR ABLESTAR R/B en temps réel avec AllMySat

Download on the App Store